Vicksburg, LA

1:37 AM CDT on March 25, 2017 (GMT -0500)
Vicksburg Tallulah Regional

Weather History for KTVR - December, 2012

Change the Weather History Date:

Tuesday, December 4, 2012

  Actual Average Record
Temperature  
Mean Temperature 70 °F 50 °F  
Max Temperature 80 °F 61 °F 82 °F (1978)
Min Temperature 59 °F 39 °F 21 °F (2007)
Degree Days  
Heating Degree Days 0 15  
Month to date heating degree days 6 59  
Since 1 July heating degree days 564 461  
Cooling Degree Days 5 0  
Month to date cooling degree days 9 0  
Year to date cooling degree days 2406 2225  
Growing Degree Days 19 (Base 50)    
Moisture  
Dew Point 61 °F    
Average Humidity 75    
Maximum Humidity 93    
Minimum Humidity 56    
Precipitation  
Precipitation 0.88 in 0.20 in 4.92 in (1982)
Month to date precipitation 0.88 0.80  
Year to date precipitation 47.24 49.93  
Sea Level Pressure  
Sea Level Pressure 30.18 in    
Wind  
Wind Speed 8 mph (SSE)    
Max Wind Speed 24 mph    
Max Gust Speed 32 mph    
Visibility 9 miles    
Events Rain , Thunderstorm    
T = Trace of Precipitation, MM = Missing Value Source: NWS Daily Summary

Daily Weather History Graph

Daily Weather History Graph

Search for Another Location

Airport or City:

Trip Planner

Search our weather history database for the weather conditions in past years. The results will help you decide how hot, cold, wet, or windy it might be!

Date:

Astronomy

Dec. 04, 2012 Rise Set
Actual Time 6:50 AM CST 4:58 PM CST
Civil Twilight 6:23 AM CST 5:25 PM CST
Nautical Twilight 5:53 AM CST 5:55 PM CST
Astronomical Twilight 5:23 AM CST 6:25 PM CST
Moon 10:33 PM CST (12/4) 10:56 AM CST (12/4)
Length of Visible Light 11h 01m
Length of Day
10h 08m
Waning Gibbous, 69% of the Moon is Illuminated
Dec 4
Waning Gibbous
Dec 6
Last Quarter
Dec 13
New
Dec 19
First Quarter
Dec 28
Full

Hourly Weather History & Observations

Time (CST) Temp. Dew Point Humidity Pressure Visibility Wind Dir Wind Speed Gust Speed Precip Events Conditions
12:53 AM 66.9 °F 62.1 °F 84% 30.15 in 10.0 mi South 9.2 mph - N/A   Overcast
1:53 AM 66.0 °F 63.0 °F 90% 30.15 in 10.0 mi South 8.1 mph - N/A   Clear
2:53 AM 64.9 °F 62.1 °F 90% 30.16 in 10.0 mi South 4.6 mph - N/A   Mostly Cloudy
3:53 AM 64.9 °F 62.1 °F 90% 30.17 in 10.0 mi SSE 5.8 mph - N/A   Overcast
4:53 AM 64.9 °F 62.1 °F 90% 30.16 in 10.0 mi SSE 5.8 mph - N/A   Overcast
5:53 AM 64.9 °F 63.0 °F 93% 30.17 in 10.0 mi South 4.6 mph - N/A   Overcast
6:07 AM 66.2 °F 62.6 °F 88% 30.16 in 9.0 mi SSE 5.8 mph - 0.00 in Rain Light Rain
6:33 AM 64.4 °F 62.6 °F 94% 30.15 in 10.0 mi SSE 9.2 mph - 0.00 in   Mostly Cloudy
6:53 AM 64.9 °F 62.1 °F 90% 30.19 in 10.0 mi SSE 6.9 mph - 0.00 in   Clear
7:53 AM 64.9 °F 63.0 °F 93% 30.20 in 10.0 mi South 8.1 mph - N/A   Partly Cloudy
8:53 AM 68.0 °F 64.9 °F 90% 30.20 in 10.0 mi South 9.2 mph - N/A   Mostly Cloudy
9:53 AM 73.0 °F 64.9 °F 76% 30.22 in 10.0 mi South 11.5 mph - N/A   Mostly Cloudy
10:53 AM 73.9 °F 64.0 °F 71% 30.21 in 10.0 mi SSW 8.1 mph - N/A   Mostly Cloudy
11:53 AM 77.0 °F 63.0 °F 62% 30.18 in 10.0 mi South 16.1 mph 20.7 mph N/A   Overcast
12:53 PM 79.0 °F 62.1 °F 56% 30.15 in 10.0 mi South 12.7 mph 18.4 mph N/A   Mostly Cloudy
1:53 PM 77.0 °F 61.0 °F 58% 30.12 in 10.0 mi South 9.2 mph 17.3 mph N/A   Mostly Cloudy
2:53 PM 77.0 °F 60.1 °F 56% 30.12 in 10.0 mi South 9.2 mph - N/A   Partly Cloudy
3:53 PM 75.9 °F 61.0 °F 60% 30.12 in 10.0 mi South 11.5 mph - N/A   Partly Cloudy
4:53 PM 73.0 °F 61.0 °F 66% 30.15 in 10.0 mi South 6.9 mph - N/A   Mostly Cloudy
5:53 PM 71.1 °F 61.0 °F 70% 30.15 in 10.0 mi South 8.1 mph - N/A   Scattered Clouds
6:53 PM 70.0 °F 62.1 °F 76% 30.19 in 10.0 mi Variable 3.5 mph - 0.00 in   Mostly Cloudy
7:09 PM 64.4 °F 59.0 °F 83% 30.18 in 10.0 mi NNE 23.0 mph 32.2 mph 0.00 in Rain , Thunderstorm Light Rain
7:32 PM 60.8 °F 57.2 °F 88% 30.21 in 1.8 mi NE 20.7 mph 26.5 mph 0.25 in Rain , Thunderstorm Heavy Rain
7:41 PM 60.8 °F 57.2 °F 88% 30.20 in 1.2 mi NE 20.7 mph 26.5 mph 0.44 in Rain , Thunderstorm Heavy Thunderstorms and Rain
7:48 PM 60.8 °F 57.2 °F 88% 30.19 in 3.0 mi NE 20.7 mph 27.6 mph 0.45 in Rain , Thunderstorm Thunderstorms and Rain
7:53 PM 60.1 °F 57.9 °F 93% 30.21 in 5.0 mi NE 21.9 mph 27.6 mph 0.45 in Rain , Thunderstorm Light Thunderstorms and Rain
8:02 PM 60.8 °F 57.2 °F 88% 30.19 in 10.0 mi ENE 19.6 mph 26.5 mph 0.00 in Rain Light Rain
8:28 PM 60.8 °F 57.2 °F 88% 30.19 in 10.0 mi NE 16.1 mph - 0.01 in Rain , Thunderstorm Light Rain
8:43 PM 60.8 °F 57.2 °F 88% 30.19 in 10.0 mi ENE 15.0 mph - 0.01 in Rain Light Rain
8:53 PM 60.1 °F 57.9 °F 93% 30.22 in 10.0 mi ENE 10.4 mph 19.6 mph 0.01 in Rain Light Rain
9:53 PM 59.0 °F 57.9 °F 96% 30.24 in 2.5 mi Calm Calm - 0.13 in Rain Heavy Rain
10:18 PM 59.0 °F 57.2 °F 94% 30.22 in 5.0 mi South 4.6 mph - 0.09 in Rain Rain
10:53 PM 59.0 °F 57.9 °F 96% 30.23 in 5.0 mi South 8.1 mph - 0.22 in Rain Heavy Rain
11:53 PM 59.0 °F 57.9 °F 96% 30.19 in 9.0 mi Calm Calm - 0.07 in Rain Light Rain